Location: Unspecified
(0.0000°N, 0.0000°E)
Time: 11:12:34
(UTC+00:00)

Tiros 1 despin weight - Pass Details

Date: 25 November 2019
Orbit: 594 x 642 km, 48.2° (Epoch: 13 December)

Event Time Altitude Azimuth Distance (km) Brightness Sun altitude
Rises 08:58:55 0° 256° (WSW) 2,862 ? 44.0°
Reaches altitude 10° 09:02:37 10° 287° (WNW) 1,942 ? 44.8°
Maximum altitude 09:04:21 12° 310° (NW) 1,802 ? 45.2°
Drops below altitude 10° 09:06:05 10° 333° (NNW) 1,929 ? 45.6°
Sets 09:09:45 0° 5° (N) 2,818 ? 46.4°
